Overview Statistics Trail Chart Weather Telemetry Raw packets
 

This is the latest recevied weather packets stored in our database for station/object OM5ZU-10. If no packets are shown the sender has not sent any weather packets the latest 10 day(s).

<< 12 13 14 15 16 17 18 >>
Time Temp. Humidity Pressure Rain* Wind** Luminosity Snow
1788271555 28.89° C 35% 1018.6 hPa - - - -
1788270654 26.67° C 37% 1018.7 hPa - - - -
1788269754 29.44° C 36% 1018.8 hPa - - - -
1788268853 29.44° C 37% 1018.8 hPa - - - -
1788267953 27.22° C 40% 1019 hPa - - - -
1788267053 28.33° C 39% 1018.9 hPa - - - -
1788266153 28.33° C 38% 1019.1 hPa - - - -
1788265253 26.67° C 41% 1019.3 hPa - - - -
1788264353 27.22° C 40% 1019.3 hPa - - - -
1788263452 25.56° C 42% 1019.4 hPa - - - -
1788262552 27.22° C 39% 1019.5 hPa - - - -
1788261652 27.78° C 40% 1019.4 hPa - - - -
1788260752 26.67° C 40% 1019.5 hPa - - - -
1788259852 25° C 45% 1019.6 hPa - - - -
1788258952 27.78° C 41% 1019.7 hPa - - - -
1788258051 26.67° C 41% 1019.5 hPa - - - -
1788257151 26.11° C 43% 1019.5 hPa - - - -
1788256251 27.22° C 43% 1019.4 hPa - - - -
1788255351 26.67° C 42% 1019.6 hPa - - - -
1788254451 25.56° C 44% 1019.6 hPa - - - -
1788253551 25.56° C 44% 1019.7 hPa - - - -
1788252650 25.56° C 45% 1019.9 hPa - - - -
1788251750 25.56° C 45% 1019.9 hPa - - - -
1788250850 25.56° C 45% 1019.8 hPa - - - -
1788249950 24.44° C 49% 1019.8 hPa - - - -

* Rain since midnight (hover to see other rain measurements)
** Current wind speed in m/s (hover to see current wind gust speed)